アトラス彗星

P/2022 L3 ( ATLAS )

English version
Home page
Updated on January 4, 2024

---------------------------------------------------------------------

・ プロフィール

発見日 2022年6月12日
発見光度 17.6等
発見者 Asteroid Terrestrial-Impact Last Alert System (ATLAS) search program

・ 写真集

・ 軌道要素

Epoch 2023 Sept. 13.0 TT = JDT 2460200.5
T 2022 Oct. 29.96776 TT                                 Rudenko
q   2.4200857            (2000.0)            P               Q
n   0.05946054     Peri.   10.33837     +0.77066619     -0.61054185
a   6.5010493      Node    29.80490     +0.55530801     +0.50294969
e   0.6277392      Incl.   21.54309     +0.31258061     +0.61178449
P  16.6
>From 1091 observations 2022 June 12-2023 Nov. 24, mean residual 0".6.

・ 星図

・ 光度変化

        m1 = 8.3 + 5 logΔ + 15.0 log r

---------------------------------------------------------------------

軌道要素はM.P.E.C. 2023-X256に掲載されたものです。
星図はステラナビゲータ Ver.10 (アストロアーツ) で作成したものです。
光度グラフはComet for Windowsで作成したものです。

---------------------------------------------------------------------

Copyright(C) Seiichi Yoshida (comet@aerith.net). All rights reserved.